Back to catalog

FENGYUN 1C DEB

AliveSSO
NORAD 29999·DEBRIS·🇨🇳 China

Launched May 10, 1999 from Taiyuan Satellite Launch Center

Loading…

Next Passes (next 24 hours)

TLE

FreshSource: Space-Track

Epoch: Sep 14, 2026, 09:55 UTC

1 29999U 99025LZ  26257.41375251  .00000586  00000-0  24474-3 0  9996
2 29999  98.6037 239.0302 0188792  48.9232 103.4679 14.20608930 16364

Track FENGYUN 1C DEB in real time with AllMySat

Download on the App Store